Impacts METAR Board INFO
IDs:

KPHX - Phoenix/Sky Harbor, AZ, US

Updated at: 1221 UTC 22 Feb 2018
Potential Impact None Slight Moderate High
Time22/00Z 22/01Z 22/02Z 22/03Z 22/04Z 22/05Z 22/06Z 22/07Z 22/08Z 22/09Z 22/10Z 22/11Z 22/12Z
VIS10 10 10 10 10 10 10 10 10 10
CIG230 170 170 120 220 -- -- -- -- --
CoverBKNBKNBKNBKNBKNSCTSCTSCTFEWFEW
FltCatVFRVFRVFRVFRVFRVFRVFRVFRVFRVFR
WX--------------------
WDir2702502902302702802500360300
WSpd9 4 6 4 4 7 6 0 3 5
WGst-- -- -- -- -- -- -- -- -- --
Raw hourly METARs
KPHX 212351Z 27009KT 10SM SCT150 SCT180 BKN230 15/M12 A3002 RMK AO2 SLP161 T01501117 10156 20111 56009



KPHX 220351Z 25004KT 10SM FEW120 BKN170 BKN220 12/M12 A3005 RMK AO2 SLP172 T01221122
KPHX 220451Z 29006KT 10SM FEW120 BKN170 BKN220 13/M14 A3006 RMK AO2 SLP173 T01281144
KPHX 220551Z 23004KT 10SM BKN120 11/M10 A3007 RMK AO2 SLP176 T01061100 10156 20106 51008
KPHX 220651Z 27004KT 10SM FEW120 SCT140 BKN220 11/M13 A3007 RMK AO2 SLP176 T01061128 401560039
KPHX 220751Z 28007KT 10SM SCT140 SCT170 SCT220 11/M13 A3007 RMK AO2 SLP177 T01061133
KPHX 220851Z 25006KT 10SM FEW150 SCT170 SCT220 08/M10 A3007 RMK AO2 SLP178 T00781100 50001
KPHX 220951Z 00000KT 10SM FEW100 FEW150 SCT200 08/M12 A3008 RMK AO2 SLP180 T00831122
KPHX 221051Z 36003KT 10SM FEW150 FEW180 08/M12 A3008 RMK AO2 SLP182 T00781122
KPHX 221151Z 30005KT 10SM FEW150 FEW180 07/M12 A3010 RMK AO2 SLP189 T00721117 10111 20072 53011 $